Regional Weather Roundup
Issued by NWS

Home | Current Version | Previous Version | Text Only | Print | Product List | Glossary Off
Versions: 1 2 3 4 5 6 7 8 9 10 11 12 13 14 15 16 17 18 19 20 21 22 23 24 25 26 27

000
ASUS45 KBOU 281410
RWRCO

WEATHER ROUNDUP FOR COLORADO
NATIONAL WEATHER SERVICE DENVER/BOULDER CO
800 AM MDT WED SEP 28 2016

NOTE: "FAIR" INDICATES FEW OR NO CLOUDS BELOW 12000 FEET WITH NO
SIGNIFICANT WEATHER AND/OR OBSTRUCTIONS TO VISIBILITY.

COZ001>005-013-030-031-281500-
...NORTHWEST COLORADO...

CITY           SKY/WX    TMP DP  RH WIND       PRES   REMARKS
CRAIG          FAIR      36  33  89 CALM      30.36R
HAYDEN         FAIR      45  30  57 E20       30.35S
MEEKER         FAIR      41  37  86 CALM      30.35R
MOUNT WERNER   NOT AVBL
STEAMBOAT SPGS FAIR      38  33  80 CALM      30.38S
WALDEN           N/A     32  23  69 SE5       30.48S WCI  27
$$

COZ006>008-011-281500-
...WEST CENTRAL VALLEYS...

CITY           SKY/WX    TMP DP  RH WIND       PRES   REMARKS
GRAND JUNCTION FAIR      54  38  54 SE7       30.25R
MONTROSE       FAIR      46  37  71 SE6       30.33R
EAGLE          SUNNY     39  30  70 CALM      30.44R
RIFLE          FAIR      47  41  80 CALM      30.32R
DELTA          NOT AVBL
NUCLA          FAIR      50  34  53 E8        30.35R
$$

COZ017>023-064>068-281500-
...SOUTHWEST COLORADO...

CITY           SKY/WX    TMP DP  RH WIND       PRES   REMARKS
DURANGO        FAIR      43  34  70 E3        30.36R
CORTEZ         FAIR      42  37  82 CALM      30.31R
PAGOSA SPRINGS FAIR      43  32  66 CALM      30.42R
TELLURIDE      FAIR      46  34  62 SE5       30.50R
WOLF CREEK PAS FAIR      43  23  45 MISG      30.69R
$$

COZ009-010-012-014-032>034-037-058>063-281500-
...CENTRAL COLORADO...

CITY           SKY/WX    TMP DP  RH WIND       PRES   REMARKS
ASPEN          FAIR      40  32  73 SE5       30.42R
BUENA VISTA    FAIR      43  27  53 N5        30.49R
COPPER MTN     FAIR      52  23  32 S9        30.68R
BERTHOUD PASS  FAIR      37  27  65 E15G21    30.71R
COTTONWOOD PAS FAIR      54  23  30 W5        30.57R
GUNNISON       FAIR      36  27  69 CALM      30.49R
KREMMLING      FAIR      34  23  64 CALM      30.49R
LEADVILLE      FAIR      36  24  62 CALM      30.56R
MONARCH PASS   FAIR      43  27  52 E14       30.77R
SALIDA         FAIR      47  29  51 CALM      30.54R
SUNLIGHT       FAIR      46  30  53 E5        30.61R
WILKERSON PASS FAIR      46  19  34 E7        30.68R
$$

COZ069>075-281500-
...SAN LUIS VALLEY/SANGRE DE CRISTO MOUNTAINS...

CITY           SKY/WX    TMP DP  RH WIND       PRES   REMARKS
ALAMOSA        FAIR      37  25  61 CALM      30.44R
LA VETA PASS   FAIR      52  30  43 MISG      30.57R
SAGUACHE       NOT AVBL
$$

COZ035-036-038>040-281500-
...NORTHERN COLORADO FRONT RANGE...

CITY           SKY/WX    TMP DP  RH WIND       PRES   REMARKS
DENVER INTL AP FAIR      55  30  38 SW8       30.32R
DMNS CITY PARK   N/A     55  32  42 SW3G10    30.33R
AURORA         SUNNY     54  31  40 SW3       30.34R
FRONT RANGE AP SUNNY     57  30  35 SW7       30.33R
ERIE MUNI ARPT FAIR      47  34  60 CALM      30.32R
BOULDER MUN AP FAIR      55  32  41 CALM      30.32R
CENTENNIAL     FAIR      52  30  43 CALM      30.35R
BROOMFIELD     SUNNY     57  27  30 W8        30.33R
FORT COLLINS   FAIR      52  36  54 CALM      30.32R
LONGMONT       FAIR      52  36  54 W3        30.33R
$$

COZ041-046-047-076>085-087-088-281500-
...PIKES PEAK/PALMER DIVIDE AND SOUTHERN FOOTHILLS...

CITY           SKY/WX    TMP DP  RH WIND       PRES   REMARKS
COLO. SPRINGS  FAIR      59  30  33 N9        30.36R
A. F. ACADEMY  FAIR      51  28  41 N8        30.38R
SCHRIEVER AFB  NOT AVBL
ELLICOTT       NOT AVBL
FALCON         FAIR      60  28  29 NW8       30.41R
FORT CARSON    FAIR      58  28  31 NW8       30.32R
LIMON          FAIR      54  27  35 NW6       30.32R
MONUMENT HILL  FAIR      52  28  40 W7        30.42R
TRINIDAD       FAIR      55  31  39 W12       30.32R
$$

COZ042>045-048>051-090-091-281500-
...NORTHEAST COLORADO...

CITY           SKY/WX    TMP DP  RH WIND       PRES   REMARKS
GREELEY ARPT   FAIR      50  39  66 SW5       30.31R
AKRON          FAIR      54  32  43 W3        30.28R
BURLINGTON     FAIR      52  35  52 NW8       30.26R
WRAY           FAIR      54  36  50 W3        30.23R
STERLING       FAIR      43  36  75 CALM      30.26R
HOLYOKE        FAIR      59  43  55 CALM      30.24R
FORT MORGAN    FAIR      56  34  43 N3        30.29R
$$

COZ086-089-092>099-281500-
...SOUTHEAST COLORADO...

CITY           SKY/WX    TMP DP  RH WIND       PRES   REMARKS
PUEBLO         FAIR      58  30  34 W7        30.27R
LA JUNTA       FAIR      55  35  47 VRB3      30.24R
LAMAR          FAIR      50  38  63 W6        30.21R
SPRINGFIELD    NOT AVBL
$$




USA.gov is the U.S. government's official web portal to all federal, state and local government web resources and services.